Fort Indiantown Gap, PA

1:16 AM EST on December 12, 2019 (GMT -0500)
Muir Army Air Field

Weather History for KMUI - October, 2019

Change the Weather History Date:

Thursday, October 31, 2019

  Actual Average Record
Temperature  
Mean Temperature 64 °F -  
Max Temperature 72 °F 56 °F 72 °F (2019)
Min Temperature 54 °F 39 °F 25 °F (2011)
Degree Days  
Heating Degree Days 1    
Growing Degree Days 14 (Base 50)    
Moisture  
Dew Point 62 °F    
Average Humidity 98    
Maximum Humidity 100    
Minimum Humidity 68    
Precipitation  
Precipitation 2.94 in - - ()
Sea Level Pressure  
Sea Level Pressure 29.81 in    
Wind  
Wind Speed 3 mph (South)    
Max Wind Speed 23 mph    
Max Gust Speed 33 mph    
Visibility 4 miles    
Events Rain , Thunderstorm    
Averages and records for this station are not official NWS values.
T = Trace of Precipitation, MM = Missing Value Source: NWS Daily Summary

Daily Weather History Graph

Daily Weather History Graph

Search for Another Location

Airport or City:

Astronomy

Oct. 31, 2019 Rise Set
Actual Time 7:34 AM EDT 6:04 PM EDT
Civil Twilight 7:06 AM EDT 6:32 PM EDT
Nautical Twilight 6:34 AM EDT 7:04 PM EDT
Astronomical Twilight 6:02 AM EDT 7:36 PM EDT
Moon 11:21 AM EDT (10/31) 8:58 PM EDT (10/31)
Length of Visible Light 11h 26m
Length of Day
10h 29m
Waxing Crescent, 15% of the Moon is Illuminated
Oct 31
Waxing Crescent
Nov 4
First Quarter
Nov 12
Full
Nov 19
Last Quarter
Nov 26
New

Hourly Weather History & Observations

Time (EDT) Temp. Dew Point Humidity Pressure Visibility Wind Dir Wind Speed Gust Speed Precip Events Conditions
12:04 AM 59.0 °F 59.0 °F 100% 30.06 in 2.8 mi Calm Calm - N/A Rain Rain
12:12 AM 59.0 °F 59.0 °F 100% 30.06 in 4.0 mi Calm Calm - N/A Rain Light Rain
12:28 AM 59.0 °F 59.0 °F 100% 30.06 in 2.2 mi Calm Calm - N/A Rain Rain
12:36 AM 59.0 °F 59.0 °F 100% 30.06 in 3.0 mi Calm Calm - N/A Rain Rain
12:44 AM 59.0 °F 59.0 °F 100% 30.05 in 3.0 mi Calm Calm - N/A Rain Rain
12:52 AM 59.0 °F 59.0 °F 100% 30.05 in 2.8 mi Calm Calm - N/A Rain Light Rain
12:56 AM 58.6 °F 58.3 °F 99% 30.05 in 3.0 mi Calm Calm - 0.13 in Rain Light Rain
1:28 AM 59.0 °F 59.0 °F 100% 30.03 in 2.2 mi Calm Calm - N/A Rain Rain
1:44 AM 59.0 °F 59.0 °F 100% 30.03 in 1.9 mi Calm Calm - N/A Rain Heavy Rain
1:56 AM 58.5 °F 58.1 °F 99% 30.03 in 1.5 mi Calm Calm - 0.17 in Rain Rain
2:12 AM 59.0 °F 59.0 °F 100% 30.02 in 1.1 mi Calm Calm - N/A Rain Rain
2:20 AM 59.0 °F 59.0 °F 100% 30.01 in 1.0 mi Calm Calm - N/A Rain Light Rain
2:28 AM 59.0 °F 59.0 °F 100% 30.00 in 1.0 mi Calm Calm - N/A Rain Light Rain
2:30 AM 59.0 °F 59.0 °F 100% 30.00 in 1.2 mi Calm Calm - N/A Rain Rain
2:38 AM 59.0 °F 59.0 °F 100% 30.00 in 2.2 mi Calm Calm - N/A Rain Light Rain
2:46 AM 59.0 °F 59.0 °F 100% 30.00 in 1.8 mi Calm Calm - N/A Rain Light Rain
2:56 AM 58.5 °F 58.1 °F 99% 30.00 in 1.2 mi Calm Calm - 0.11 in Rain Light Rain
3:04 AM 59.0 °F 59.0 °F 100% 29.99 in 2.0 mi Calm Calm - N/A Rain Rain
3:12 AM 59.0 °F 59.0 °F 100% 29.99 in 1.9 mi Calm Calm - N/A Rain Rain
3:28 AM 59.0 °F 59.0 °F 100% 29.98 in 2.0 mi Calm Calm - N/A Rain Light Rain
3:36 AM 59.0 °F 59.0 °F 100% 29.98 in 1.6 mi Calm Calm - N/A Rain Rain
3:44 AM 59.0 °F 59.0 °F 100% 29.97 in 1.2 mi Calm Calm - N/A Rain Heavy Rain
3:52 AM 59.0 °F 59.0 °F 100% 29.97 in 1.6 mi Calm Calm - N/A Rain Light Rain
3:56 AM 58.5 °F 58.1 °F 99% 29.97 in 2.0 mi Calm Calm - 0.16 in Rain Light Rain
4:12 AM 59.0 °F 59.0 °F 100% 29.95 in 1.9 mi East 3.5 mph - N/A   Light Drizzle
4:20 AM 59.0 °F 59.0 °F 100% 29.95 in 2.8 mi Calm Calm - N/A Rain Light Rain
4:36 AM 59.0 °F 59.0 °F 100% 29.95 in 1.8 mi Calm Calm - N/A Rain Rain
4:56 AM 58.6 °F 58.6 °F 100% 29.94 in 1.8 mi Calm Calm - 0.06 in Rain Light Rain
5:10 AM 59.0 °F 59.0 °F 100% 29.94 in 1.0 mi Calm Calm - N/A   Light Drizzle
5:14 AM 59.0 °F 59.0 °F 100% 29.94 in 1.1 mi Calm Calm - N/A   Light Drizzle
5:22 AM 59.0 °F 59.0 °F 100% 29.93 in 1.4 mi Calm Calm - N/A   Light Drizzle
5:23 AM 59.0 °F 59.0 °F 100% 29.93 in 1.4 mi Calm Calm - N/A   Overcast
5:27 AM 59.0 °F 59.0 °F 100% 29.93 in 1.4 mi Calm Calm - N/A   Light Drizzle
5:56 AM 59.0 °F 59.0 °F 100% 29.92 in 1.6 mi Calm Calm - 0.02 in   Light Drizzle
5:59 AM 59.0 °F 59.0 °F 100% 29.92 in 1.5 mi Calm Calm - N/A   Overcast
6:07 AM 59.0 °F 59.0 °F 100% 29.92 in 1.1 mi Calm Calm - N/A   Overcast
6:18 AM 59.0 °F 59.0 °F 100% 29.92 in 0.8 mi Calm Calm - N/A   Light Drizzle
6:42 AM 59.0 °F 59.0 °F 100% 29.91 in 1.1 mi Calm Calm - N/A   Light Drizzle
6:50 AM 59.0 °F 59.0 °F 100% 29.91 in 1.2 mi Calm Calm - N/A Rain Light Rain
6:56 AM 59.2 °F 59.2 °F 100% 29.90 in 1.0 mi Calm Calm - 0.01 in Rain Light Rain
7:12 AM 59.0 °F 59.0 °F 100% 29.90 in 1.9 mi North 3.5 mph - N/A   Light Drizzle
7:28 AM 59.0 °F 59.0 °F 100% 29.89 in 1.4 mi Calm Calm - N/A   Light Drizzle
7:56 AM 60.1 °F 60.1 °F 100% 29.89 in 1.0 mi Calm Calm - 0.02 in   Light Drizzle
8:04 AM 60.8 °F 60.8 °F 100% 29.89 in 0.9 mi Calm Calm - N/A   Light Drizzle
8:10 AM 60.8 °F 60.8 °F 100% 29.89 in 1.1 mi NNE 3.5 mph - N/A   Light Drizzle
8:34 AM 60.8 °F 60.8 °F 100% 29.89 in 1.1 mi Calm Calm - N/A   Light Drizzle
8:36 AM 60.8 °F 60.8 °F 100% 29.89 in 1.1 mi Calm Calm - N/A   Overcast
8:44 AM 60.8 °F 60.8 °F 100% 29.89 in 1.2 mi Calm Calm - N/A   Overcast
8:56 AM 60.8 °F 60.8 °F 100% 29.89 in 1.4 mi NNE 3.5 mph - 0.01 in   Overcast
9:12 AM 60.8 °F 60.8 °F 100% 29.89 in 2.2 mi NNE 3.5 mph - N/A   Overcast
9:21 AM 60.8 °F 60.8 °F 100% 29.89 in 2.0 mi Calm Calm - N/A   Overcast
9:41 AM 62.6 °F 62.6 °F 100% 29.88 in 1.5 mi Calm Calm - N/A   Light Drizzle
9:56 AM 61.7 °F 61.7 °F 100% 29.87 in 1.6 mi Calm Calm - N/A   Light Drizzle
10:34 AM 62.6 °F 62.6 °F 100% 29.85 in 3.0 mi Calm Calm - N/A   Overcast
10:56 AM 63.5 °F 63.5 °F 100% 29.84 in 2.8 mi Calm Calm - N/A   Overcast
11:56 AM 65.7 °F 65.7 °F 100% 29.80 in 2.2 mi SSE 3.5 mph - N/A   Overcast
12:03 PM 66.2 °F 66.2 °F 100% 29.80 in 4.0 mi SSE 3.5 mph - N/A   Light Drizzle
12:56 PM 67.3 °F 67.3 °F 100% 29.76 in 10.0 mi South 10.4 mph - 0.01 in   Overcast
1:02 PM 68.0 °F 68.0 °F 100% 29.75 in 6.0 mi South 8.1 mph - N/A   Overcast
1:12 PM 68.0 °F 68.0 °F 100% 29.75 in 5.0 mi South 9.2 mph - N/A Rain Light Rain
1:38 PM 68.0 °F 68.0 °F 100% 29.73 in 10.0 mi South 10.4 mph - N/A   Overcast
1:56 PM 68.2 °F 68.2 °F 100% 29.71 in 10.0 mi South 11.5 mph - 0.01 in Rain Light Rain
2:56 PM 68.5 °F 68.5 °F 100% 29.67 in 7.0 mi South 6.9 mph - 0.09 in Rain Rain
3:20 PM 69.8 °F 69.8 °F 100% 29.65 in 10.0 mi South 4.6 mph - N/A Rain Light Rain
3:21 PM 69.8 °F 69.8 °F 100% 29.65 in 10.0 mi South 5.8 mph - N/A   Overcast
3:46 PM 69.8 °F 69.8 °F 100% 29.65 in 10.0 mi South 9.2 mph - N/A   Light Drizzle
3:56 PM 69.6 °F 69.3 °F 99% 29.65 in 10.0 mi SSE 8.1 mph - 0.02 in   Overcast
4:14 PM 69.8 °F 69.8 °F 100% 29.64 in 10.0 mi SSE 8.1 mph - N/A Rain Light Rain
4:56 PM 70.0 °F 69.3 °F 98% 29.62 in 10.0 mi South 9.2 mph - 0.02 in Rain Light Rain
4:57 PM 69.8 °F 69.8 °F 100% 29.62 in 10.0 mi South 9.2 mph - N/A   Overcast
5:55 PM 71.6 °F 69.8 °F 94% 29.58 in 10.0 mi South 6.9 mph 17.3 mph N/A Rain Light Rain
5:56 PM 71.1 °F 68.9 °F 93% 29.58 in 10.0 mi South 9.2 mph 17.3 mph 0.00 in Rain Light Rain
6:04 PM 71.6 °F 68.0 °F 88% 29.58 in 10.0 mi South 10.4 mph 17.3 mph N/A Rain Light Rain
6:49 PM 71.6 °F 69.8 °F 94% 29.55 in 10.0 mi SSE 11.5 mph - N/A   Overcast
6:56 PM 70.9 °F 68.7 °F 93% 29.55 in 10.0 mi SSE 12.7 mph 18.4 mph 0.03 in   Overcast
7:35 PM 71.6 °F 68.0 °F 88% 29.49 in 10.0 mi SSE 16.1 mph 26.5 mph N/A   Overcast
7:39 PM 71.6 °F 68.0 °F 88% 29.49 in 10.0 mi South 13.8 mph 26.5 mph N/A Rain Light Rain
7:56 PM 71.8 °F 67.6 °F 87% 29.55 in 3.0 mi West 12.7 mph 24.2 mph 0.00 in Rain Heavy Rain
8:09 PM 68.0 °F 66.2 °F 94% 29.54 in 1.2 mi WSW 23.0 mph 29.9 mph N/A Rain Heavy Rain
8:24 PM 66.2 °F 66.2 °F 100% 29.53 in 0.6 mi SSW 17.3 mph 24.2 mph N/A Rain , Thunderstorm Heavy Thunderstorms and Rain
8:39 PM 66.2 °F 66.2 °F 100% 29.51 in 1.5 mi SSW 9.2 mph - N/A Rain , Thunderstorm Heavy Thunderstorms and Rain
8:47 PM 66.2 °F 66.2 °F 100% 29.49 in 2.5 mi SSW 9.2 mph - N/A Rain , Thunderstorm Heavy Thunderstorms and Rain
8:53 PM 66.2 °F 66.2 °F 100% 29.49 in 0.8 mi SSW 9.2 mph - N/A Rain , Thunderstorm Heavy Thunderstorms and Rain
8:56 PM 65.8 °F 65.5 °F 99% 29.50 in 1.6 mi SSW 9.2 mph - 1.43 in Rain , Thunderstorm Heavy Thunderstorms and Rain
9:18 PM 66.2 °F 66.2 °F 100% 29.49 in 3.0 mi South 6.9 mph - N/A Rain , Thunderstorm Heavy Rain
9:36 PM 66.2 °F 66.2 °F 100% 29.49 in 4.0 mi SW 4.6 mph - N/A Rain Rain
9:56 PM 65.7 °F 65.7 °F 100% 29.52 in 4.0 mi West 8.1 mph - 0.55 in Rain Rain
10:08 PM 62.6 °F 62.6 °F 100% 29.55 in 7.0 mi West 18.4 mph 33.4 mph N/A Rain Light Rain
10:12 PM 62.6 °F 60.8 °F 94% 29.55 in 10.0 mi WSW 21.9 mph 33.4 mph N/A Rain Light Rain
10:28 PM 62.6 °F 51.8 °F 68% 29.56 in 10.0 mi West 23.0 mph 31.1 mph N/A Rain Light Rain
10:56 PM 57.9 °F 52.7 °F 83% 29.62 in 6.0 mi West 19.6 mph 28.8 mph 0.07 in Rain Rain
11:56 PM 54.0 °F 46.6 °F 76% 29.68 in 10.0 mi West 11.5 mph 21.9 mph 0.02 in Rain Rain